User: anonymous   Login
Location: Potawatomi Wildlife Park
(41.2308°N, 86.1050°W)
Time: 05:53:35
(UTC-05:00)
Language:

SL-16 R/B - Orbit

View from above orbital plane
View from above orbital plane
View from above satellite
View from above satellite

Ground track
Ground track

The orbit data is extracted from the following two-line orbital elements,

1 27006U 01056F   17016.88076736 -.00000037  00000-0  61566-5 0  9997
2 27006  99.2872 162.9188 0014381 347.5087 166.4960 13.70972719755768
Epoch (UTC): 16 January 2017 21:08:18
Eccentricity: 0.0014381
inclination: 99.2872°
perigee height: 985 km
apogee height: 1006 km
right ascension of ascending node: 162.9188°
argument of perigee: 347.5087°
revolutions per day: 13.70972719
mean anomaly at epoch: 166.4960°
orbit number at epoch: 75576

The dashed part of the orbit path shows where the satellite is in the earth's shadow,  

DLR